UPS3 OMDB-EDDK

Flight info

Callsign UPS3
Flight time N/A
Altitude 30000
Route SENPA N571 ALPOB L768 VATIM L550 NOVPA N697 MENLI L677 CVO/N0491F320 L617 TANSA UL617 MIL UN134 KOR UL613 YNN UL611 TUMBO DCT OVVER DCT RODON DCT VAKSU DCT NERRA DCT VEKEN DCT ERKIR DCT VEKIR DCT UMDAS T844 ASKIK/N0453F240 T840 GULKO GULKO1B
Aircraft MD11/H-SDE1E2E3FGHIJ2J3J4J5M1RWXY/LB1D1

Departure

Time N/A
Airport Dubai International Airport (OMDB)

Arrival

Time 2026-04-25 20:57
Airport Cologne Bonn Airport (EDDK)
Time Latitude Longitude Altitude Speed Heading
2026-04-25 15:44 25.95114 52.48549 31930 ft 458 kts 292°
2026-04-25 15:45 25.97908 52.42192 31929 ft 458 kts 292°
2026-04-25 15:45 26.00248 52.36909 31930 ft 458 kts 292°
2026-04-25 15:46 26.03561 52.29486 31930 ft 458 kts 292°
2026-04-25 15:46 26.06395 52.23141 31933 ft 458 kts 292°
2026-04-25 15:47 26.09222 52.16799 31949 ft 458 kts 292°
2026-04-25 15:47 26.12042 52.10460 31933 ft 457 kts 292°
2026-04-25 15:48 26.14857 52.04124 31940 ft 457 kts 292°
2026-04-25 15:48 26.17682 51.97774 31943 ft 459 kts 292°
2026-04-25 15:49 26.20522 51.91420 31938 ft 458 kts 292°
2026-04-25 15:49 26.23335 51.85049 31941 ft 458 kts 292°
2026-04-25 15:50 26.26143 51.78691 31946 ft 456 kts 292°
2026-04-25 15:50 26.28964 51.72355 31946 ft 457 kts 292°
2026-04-25 15:51 26.31314 51.67082 31949 ft 457 kts 292°
2026-04-25 15:51 26.34611 51.59655 31949 ft 457 kts 292°
2026-04-25 15:52 26.37397 51.53339 31949 ft 457 kts 291°
2026-04-25 15:52 26.39749 51.46797 31953 ft 453 kts 286°
2026-04-25 15:53 26.41814 51.40171 31949 ft 452 kts 285°
2026-04-25 15:53 26.43882 51.33538 31954 ft 452 kts 286°
2026-04-25 15:54 26.45984 51.26917 31954 ft 453 kts 286°
2026-04-25 15:54 26.48099 51.20289 31952 ft 453 kts 286°
2026-04-25 15:55 26.50213 51.13660 31958 ft 453 kts 286°
2026-04-25 15:55 26.52315 51.07061 31950 ft 450 kts 286°
2026-04-25 15:56 26.54411 51.00464 31956 ft 451 kts 286°
2026-04-25 15:56 26.56505 50.93862 31948 ft 451 kts 286°
2026-04-25 15:57 26.58573 50.87251 31950 ft 451 kts 285°
2026-04-25 15:57 26.60610 50.80668 31952 ft 452 kts 285°
2026-04-25 15:58 26.62662 50.74035 31955 ft 450 kts 285°
2026-04-25 15:58 26.64689 50.67426 31958 ft 449 kts 285°
2026-04-25 15:59 26.66661 50.60792 31954 ft 450 kts 284°
2026-04-25 15:59 26.68628 50.54136 31963 ft 451 kts 284°
2026-04-25 16:00 26.69939 50.49683 31958 ft 451 kts 284°
2026-04-25 16:00 26.72316 50.40755 31965 ft 450 kts 282°
2026-04-25 16:01 26.74030 50.34028 31962 ft 449 kts 282°
2026-04-25 16:01 26.75765 50.27318 31961 ft 450 kts 283°
2026-04-25 16:02 26.77693 50.20659 31963 ft 450 kts 285°
2026-04-25 16:02 26.79696 50.14006 31961 ft 452 kts 284°
2026-04-25 16:03 26.81697 50.07336 31965 ft 452 kts 284°
2026-04-25 16:03 26.83688 50.00653 31954 ft 452 kts 284°
2026-04-25 16:04 26.85664 49.93952 31956 ft 454 kts 283°
2026-04-25 16:04 26.87628 49.87276 31944 ft 455 kts 283°
2026-04-25 16:05 26.89606 49.80551 31956 ft 454 kts 283°
2026-04-25 16:06 26.92568 49.70463 31958 ft 455 kts 283°
2026-04-25 16:06 26.94541 49.63725 31951 ft 454 kts 283°
2026-04-25 16:07 26.96502 49.57022 31941 ft 451 kts 283°
2026-04-25 16:07 26.98452 49.50337 31948 ft 452 kts 283°
2026-04-25 16:08 27.00415 49.43643 31941 ft 453 kts 285°
2026-04-25 16:08 27.03121 49.37198 31948 ft 460 kts 293°
2026-04-25 16:09 27.06314 49.30959 31946 ft 461 kts 294°
2026-04-25 16:09 27.09526 49.24708 31955 ft 463 kts 294°
2026-04-25 16:10 27.12702 49.18409 31953 ft 463 kts 293°
2026-04-25 16:10 27.15854 49.12100 31960 ft 463 kts 293°
2026-04-25 16:11 27.19000 49.05784 31991 ft 463 kts 293°
2026-04-25 16:11 27.22128 48.99500 31968 ft 458 kts 293°
2026-04-25 16:12 27.25232 48.93260 31970 ft 458 kts 293°
2026-04-25 16:12 27.28343 48.87010 31974 ft 458 kts 293°
2026-04-25 16:13 27.30931 48.81811 31978 ft 458 kts 293°
2026-04-25 16:13 27.34039 48.75563 31981 ft 456 kts 293°
2026-04-25 16:14 27.37119 48.69368 31981 ft 452 kts 293°
2026-04-25 16:14 27.40186 48.63178 31984 ft 454 kts 293°
2026-04-25 16:15 27.43265 48.56955 31987 ft 456 kts 293°
2026-04-25 16:15 27.46348 48.50720 32003 ft 455 kts 292°
2026-04-25 16:16 27.49422 48.44497 31993 ft 454 kts 292°
2026-04-25 16:16 27.52475 48.38301 31992 ft 457 kts 292°
2026-04-25 16:17 27.55564 48.32025 31990 ft 458 kts 292°
2026-04-25 16:17 27.58644 48.25747 31999 ft 457 kts 292°
2026-04-25 16:18 27.61707 48.19492 31978 ft 454 kts 293°
2026-04-25 16:18 27.64769 48.13242 31984 ft 456 kts 293°
2026-04-25 16:19 27.67839 48.06982 31992 ft 456 kts 293°
2026-04-25 16:19 27.70895 48.00717 31984 ft 455 kts 293°
2026-04-25 16:20 27.75410 47.91406 31986 ft 446 kts 292°
2026-04-25 16:21 27.79878 47.82162 31982 ft 448 kts 292°
2026-04-25 16:21 27.82859 47.75990 31982 ft 448 kts 293°
2026-04-25 16:22 27.85555 47.69707 31983 ft 439 kts 286°
2026-04-25 16:22 27.87585 47.63256 31980 ft 435 kts 284°
2026-04-25 16:23 27.89517 47.56767 31978 ft 436 kts 284°
2026-04-25 16:23 27.91483 47.50291 31982 ft 436 kts 284°
2026-04-25 16:24 27.93469 47.43821 31979 ft 436 kts 284°
2026-04-25 16:24 27.95450 47.37384 31968 ft 430 kts 285°
2026-04-25 16:25 27.97404 47.31020 31979 ft 429 kts 284°
2026-04-25 16:25 27.99359 47.24628 31982 ft 430 kts 284°
2026-04-25 16:26 28.01312 47.18237 31982 ft 430 kts 284°
2026-04-25 16:26 28.03262 47.11847 31975 ft 430 kts 284°
2026-04-25 16:27 28.05202 47.05480 31972 ft 426 kts 284°
2026-04-25 16:27 28.07124 46.99156 31972 ft 425 kts 284°
2026-04-25 16:28 28.09048 46.92803 31966 ft 430 kts 283°
2026-04-25 16:28 28.11035 46.86366 31974 ft 435 kts 284°
2026-04-25 16:29 28.13149 46.79956 31974 ft 434 kts 285°
2026-04-25 16:29 28.15280 46.73588 31967 ft 436 kts 285°
2026-04-25 16:30 28.17429 46.67154 31963 ft 436 kts 285°
2026-04-25 16:30 28.19572 46.60715 31966 ft 436 kts 285°
2026-04-25 16:31 28.21710 46.54273 31959 ft 438 kts 285°
2026-04-25 16:31 28.23859 46.47783 31981 ft 440 kts 285°
2026-04-25 16:32 28.26008 46.41287 31995 ft 440 kts 285°
2026-04-25 16:32 28.28154 46.34788 32006 ft 441 kts 284°
2026-04-25 16:33 28.30310 46.28234 32034 ft 446 kts 284°
2026-04-25 16:33 28.32476 46.21652 32047 ft 445 kts 284°
2026-04-25 16:34 28.34636 46.15076 32040 ft 445 kts 284°
2026-04-25 16:34 28.36891 46.08502 32047 ft 449 kts 285°
2026-04-25 16:35 28.39303 46.01961 32041 ft 449 kts 286°
2026-04-25 16:35 28.41739 45.95426 32018 ft 449 kts 286°
2026-04-25 16:36 28.44173 45.88860 31964 ft 451 kts 286°
2026-04-25 16:36 28.46595 45.82308 32004 ft 450 kts 286°
2026-04-25 16:36 28.47804 45.79028 32142 ft 450 kts 286°
2026-04-25 16:37 28.49012 45.75747 32297 ft 450 kts 285°
2026-04-25 16:37 28.50203 45.72511 32422 ft 450 kts 285°
2026-04-25 16:37 28.51408 45.69234 32585 ft 449 kts 285°
2026-04-25 16:37 28.52626 45.65921 32765 ft 448 kts 285°
2026-04-25 16:38 28.53804 45.62716 33028 ft 443 kts 285°
2026-04-25 16:38 28.54989 45.59490 33232 ft 441 kts 285°
2026-04-25 16:38 28.56167 45.56275 33401 ft 440 kts 285°
2026-04-25 16:38 28.57342 45.53062 33519 ft 440 kts 285°
2026-04-25 16:39 28.58515 45.49853 33651 ft 439 kts 285°
2026-04-25 16:39 28.59686 45.46648 33851 ft 437 kts 285°
2026-04-25 16:39 28.60851 45.43457 33925 ft 437 kts 285°
2026-04-25 16:40 28.63181 45.37059 33960 ft 437 kts 285°
2026-04-25 16:40 28.65503 45.30688 33948 ft 434 kts 285°
2026-04-25 16:41 28.67808 45.24332 33948 ft 434 kts 285°
2026-04-25 16:41 28.71240 45.14786 33951 ft 433 kts 285°
2026-04-25 16:42 28.73530 45.08442 33942 ft 434 kts 285°
2026-04-25 16:42 28.75830 45.02065 33957 ft 436 kts 285°
2026-04-25 16:43 28.78138 44.95665 33945 ft 437 kts 285°
2026-04-25 16:43 28.80448 44.89249 33944 ft 438 kts 285°
2026-04-25 16:44 28.82754 44.82831 33942 ft 437 kts 285°
2026-04-25 16:44 28.85057 44.76407 33946 ft 437 kts 285°
2026-04-25 16:45 28.86588 44.69818 33943 ft 426 kts 272°
2026-04-25 16:45 28.87105 44.63111 33940 ft 424 kts 269°
2026-04-25 16:46 28.87531 44.56393 33943 ft 426 kts 270°
2026-04-25 16:46 28.87851 44.51927 33940 ft 427 kts 271°
2026-04-25 16:47 28.88548 44.42942 33939 ft 424 kts 271°
2026-04-25 16:47 28.88769 44.40140 33948 ft 425 kts 271°
2026-04-25 16:48 28.90429 44.18811 33937 ft 427 kts 271°
2026-04-25 16:48 28.92477 43.91828 33940 ft 427 kts 271°
2026-04-25 16:49 28.94424 43.65009 33938 ft 423 kts 271°
2026-04-25 16:49 28.96338 43.38278 33944 ft 422 kts 272°
2026-04-25 16:50 28.98212 43.11624 33944 ft 418 kts 272°
2026-04-25 16:50 29.00020 42.85136 33941 ft 418 kts 272°
2026-04-25 16:51 29.01765 42.58806 33946 ft 419 kts 271°
2026-04-25 16:51 29.02867 42.41190 33932 ft 414 kts 271°
2026-04-25 16:52 29.05055 42.06017 33923 ft 420 kts 271°
2026-04-25 16:52 29.06646 41.79411 33910 ft 417 kts 271°
2026-04-25 16:53 29.08914 41.39831 33897 ft 416 kts 271°
2026-04-25 16:54 29.10356 41.13493 33912 ft 410 kts 271°
2026-04-25 16:54 29.11743 40.87450 33939 ft 411 kts 271°
2026-04-25 16:55 29.13085 40.61320 33949 ft 412 kts 271°
2026-04-25 16:55 29.12523 40.35326 33955 ft 408 kts 266°
2026-04-25 16:56 29.11641 40.09420 33953 ft 408 kts 266°
2026-04-25 16:56 29.10964 39.83353 33956 ft 411 kts 269°
2026-04-25 16:57 29.11078 39.57330 33967 ft 412 kts 268°
2026-04-25 16:57 29.11122 39.31039 33951 ft 413 kts 268°
2026-04-25 16:58 29.11115 39.04675 33938 ft 413 kts 268°
2026-04-25 16:58 29.11004 38.78358 33930 ft 416 kts 268°
2026-04-25 16:59 29.10895 38.56449 33919 ft 414 kts 268°
2026-04-25 16:59 29.10701 38.30117 33920 ft 414 kts 268°
2026-04-25 17:00 29.10461 38.03736 33907 ft 416 kts 268°
2026-04-25 17:00 29.10179 37.77528 33916 ft 411 kts 268°
2026-04-25 17:01 29.09846 37.51306 33925 ft 413 kts 268°
2026-04-25 17:01 29.09617 37.25042 33932 ft 410 kts 268°
2026-04-25 17:02 29.09376 36.98901 33952 ft 411 kts 268°
2026-04-25 17:02 29.09083 36.72638 33932 ft 414 kts 268°
2026-04-25 17:03 29.08690 36.46409 33907 ft 411 kts 267°
2026-04-25 17:03 29.07978 36.20420 33899 ft 413 kts 267°
2026-04-25 17:04 29.07220 35.94167 33909 ft 413 kts 266°
2026-04-25 17:04 29.06419 35.68187 33929 ft 410 kts 266°
2026-04-25 17:05 29.05542 35.42403 33938 ft 412 kts 266°
2026-04-25 17:05 29.04150 35.02989 33898 ft 409 kts 266°
2026-04-25 17:06 29.03316 34.76947 33873 ft 411 kts 268°
2026-04-25 17:06 29.06218 34.51113 33887 ft 421 kts 286°
2026-04-25 17:07 29.14428 34.25889 33934 ft 424 kts 286°
2026-04-25 17:07 29.22473 34.00562 33948 ft 422 kts 285°
2026-04-25 17:08 29.29918 33.75028 33935 ft 422 kts 284°
2026-04-25 17:08 29.37213 33.49376 33941 ft 424 kts 284°
2026-04-25 17:09 29.44467 33.23663 33928 ft 424 kts 284°
2026-04-25 17:09 29.51667 32.97836 33907 ft 425 kts 284°
2026-04-25 17:10 29.58851 32.71890 33892 ft 427 kts 284°
2026-04-25 17:10 29.65212 32.45619 33903 ft 427 kts 281°
2026-04-25 17:11 29.71110 32.19146 33917 ft 427 kts 281°
2026-04-25 17:11 29.76957 31.92661 33917 ft 427 kts 281°
2026-04-25 17:12 29.82146 31.80314 33903 ft 440 kts 302°
2026-04-25 17:12 29.89632 31.69118 33889 ft 441 kts 301°
2026-04-25 17:12 30.04146 31.46556 33830 ft 441 kts 301°
2026-04-25 17:13 30.11303 31.36846 33833 ft 450 kts 310°
2026-04-25 17:13 30.16662 31.31146 33838 ft 451 kts 311°
2026-04-25 17:14 30.21291 31.26211 33831 ft 453 kts 310°
2026-04-25 17:14 30.25900 31.21230 33843 ft 454 kts 310°
2026-04-25 17:15 30.30513 31.16215 33841 ft 455 kts 310°
2026-04-25 17:15 30.35120 31.11198 33841 ft 455 kts 310°
2026-04-25 17:16 30.39727 31.06176 33845 ft 455 kts 310°
2026-04-25 17:16 30.44334 31.01147 33849 ft 455 kts 310°
2026-04-25 17:17 30.48940 30.96112 33832 ft 455 kts 310°
2026-04-25 17:17 30.53551 30.91064 33836 ft 456 kts 310°
2026-04-25 17:18 30.58170 30.86002 33832 ft 456 kts 310°
2026-04-25 17:18 30.62785 30.80936 33832 ft 456 kts 310°
2026-04-25 17:19 30.67396 30.75868 33832 ft 456 kts 310°
2026-04-25 17:19 30.71994 30.70786 33832 ft 456 kts 310°
2026-04-25 17:20 30.76594 30.65698 33834 ft 456 kts 310°
2026-04-25 17:20 30.81197 30.60611 33838 ft 456 kts 310°
2026-04-25 17:21 30.85768 30.55559 33847 ft 456 kts 310°
2026-04-25 17:21 30.90366 30.50471 33843 ft 456 kts 310°
2026-04-25 17:22 30.94216 30.46205 33843 ft 456 kts 310°
2026-04-25 17:22 30.99557 30.40277 33843 ft 456 kts 310°
2026-04-25 17:23 31.04144 30.35181 33852 ft 455 kts 310°
2026-04-25 17:23 31.08506 30.29905 33847 ft 447 kts 301°
2026-04-25 17:24 31.11371 30.23622 33842 ft 434 kts 284°
2026-04-25 17:24 31.13061 30.16861 33854 ft 433 kts 281°
2026-04-25 17:25 31.14699 30.10090 33875 ft 434 kts 282°
2026-04-25 17:25 31.16451 30.03362 33855 ft 433 kts 283°
2026-04-25 17:26 31.18327 29.96676 33884 ft 436 kts 288°
2026-04-25 17:26 31.21396 29.90551 33884 ft 445 kts 300°
2026-04-25 17:27 31.25135 29.84764 33883 ft 447 kts 301°
2026-04-25 17:27 31.27647 29.80889 33915 ft 446 kts 301°
2026-04-25 17:28 31.32538 29.73123 33876 ft 445 kts 300°
2026-04-25 17:28 31.36175 29.67255 33887 ft 445 kts 300°
2026-04-25 17:29 31.39804 29.61382 33884 ft 445 kts 300°
2026-04-25 17:29 31.43434 29.55503 33892 ft 445 kts 300°
2026-04-25 17:30 31.47060 29.49623 33895 ft 445 kts 300°
2026-04-25 17:30 31.50679 29.43746 33898 ft 445 kts 300°
2026-04-25 17:31 31.54294 29.37866 33900 ft 445 kts 300°
2026-04-25 17:31 31.57909 29.31976 33906 ft 445 kts 300°
2026-04-25 17:32 31.61505 29.26068 33906 ft 445 kts 300°
2026-04-25 17:32 31.65099 29.20158 33919 ft 445 kts 299°
2026-04-25 17:33 31.68697 29.14249 33946 ft 445 kts 299°
2026-04-25 17:33 31.72610 29.08553 33932 ft 455 kts 309°
2026-04-25 17:34 31.77447 29.03671 33928 ft 461 kts 314°
2026-04-25 17:34 31.82467 28.98979 33933 ft 461 kts 314°
2026-04-25 17:35 31.87443 28.94234 33939 ft 461 kts 314°
2026-04-25 17:35 31.92391 28.89432 33931 ft 461 kts 313°
2026-04-25 17:36 31.97329 28.84613 33937 ft 461 kts 313°
2026-04-25 17:36 32.02264 28.79790 33936 ft 462 kts 314°
2026-04-25 17:37 32.07190 28.74968 33939 ft 464 kts 314°
2026-04-25 17:37 32.12163 28.70100 33933 ft 464 kts 314°
2026-04-25 17:38 32.15487 28.66842 33942 ft 464 kts 314°
2026-04-25 17:38 32.22109 28.60339 33936 ft 466 kts 314°
2026-04-25 17:39 32.27087 28.55443 33932 ft 466 kts 314°
2026-04-25 17:39 32.32064 28.50539 33929 ft 466 kts 314°
2026-04-25 17:40 32.37055 28.45605 33934 ft 469 kts 314°
2026-04-25 17:40 32.42058 28.40637 33932 ft 470 kts 314°
2026-04-25 17:41 32.47067 28.35671 33950 ft 470 kts 315°
2026-04-25 17:41 32.52079 28.30703 33941 ft 470 kts 315°
2026-04-25 17:42 32.57088 28.25732 33933 ft 470 kts 315°
2026-04-25 17:42 32.62098 28.20752 33933 ft 470 kts 315°
2026-04-25 17:43 32.67104 28.15767 33933 ft 470 kts 314°
2026-04-25 17:43 32.72107 28.10780 33927 ft 470 kts 314°
2026-04-25 17:44 32.77109 28.05783 33948 ft 470 kts 315°
2026-04-25 17:44 32.82113 28.00779 33921 ft 470 kts 315°
2026-04-25 17:45 32.85423 27.97464 33937 ft 470 kts 315°
2026-04-25 17:45 32.92078 27.90790 33925 ft 470 kts 315°
2026-04-25 17:46 32.97076 27.85767 33931 ft 471 kts 315°
2026-04-25 17:46 33.01252 27.81554 33926 ft 473 kts 315°
2026-04-25 17:47 33.06302 27.76442 33923 ft 473 kts 315°
2026-04-25 17:47 33.11289 27.71400 33923 ft 473 kts 315°
2026-04-25 17:48 33.18856 27.63748 33922 ft 473 kts 315°
2026-04-25 17:49 33.23841 27.58698 33917 ft 473 kts 315°
2026-04-25 17:49 33.28896 27.53569 33925 ft 474 kts 315°
2026-04-25 17:50 33.33898 27.48484 33916 ft 476 kts 315°
2026-04-25 17:50 33.38942 27.43351 33917 ft 475 kts 314°
2026-04-25 17:51 33.44006 27.38189 33914 ft 475 kts 314°
2026-04-25 17:51 33.49008 27.33081 33911 ft 475 kts 314°
2026-04-25 17:52 33.54037 27.27938 33911 ft 475 kts 314°
2026-04-25 17:52 33.59063 27.22789 33911 ft 476 kts 314°
2026-04-25 17:53 33.64106 27.17607 33904 ft 478 kts 314°
2026-04-25 17:53 33.69162 27.12383 33907 ft 481 kts 315°
2026-04-25 17:54 33.74237 27.07148 33901 ft 481 kts 315°
2026-04-25 17:54 33.79319 27.01907 33898 ft 481 kts 315°
2026-04-25 17:55 33.84402 26.96659 33895 ft 481 kts 315°
2026-04-25 17:55 33.89476 26.91411 33905 ft 481 kts 315°
2026-04-25 17:56 33.94573 26.86129 33902 ft 485 kts 316°
2026-04-25 17:56 34.00164 26.81501 33885 ft 492 kts 328°
2026-04-25 17:57 34.06358 26.77907 33885 ft 495 kts 332°
2026-04-25 17:57 34.12612 26.74434 33885 ft 494 kts 331°
2026-04-25 17:58 34.18823 26.70860 33883 ft 495 kts 331°
2026-04-25 17:58 34.25031 26.67215 33879 ft 497 kts 331°
2026-04-25 17:59 34.31205 26.63576 33881 ft 497 kts 331°
2026-04-25 17:59 34.37422 26.59909 33881 ft 497 kts 331°
2026-04-25 18:00 34.43636 26.56240 33888 ft 497 kts 332°
2026-04-25 18:00 34.49856 26.52562 33875 ft 498 kts 332°
2026-04-25 18:01 34.56088 26.48871 33868 ft 498 kts 332°
2026-04-25 18:01 34.62316 26.45177 33867 ft 498 kts 332°
2026-04-25 18:02 34.68542 26.41476 33867 ft 498 kts 332°
2026-04-25 18:02 34.74769 26.37761 33869 ft 499 kts 332°
2026-04-25 18:03 34.80996 26.34032 33870 ft 499 kts 332°
2026-04-25 18:03 34.87223 26.30307 33870 ft 499 kts 332°
2026-04-25 18:04 34.93451 26.26581 33873 ft 499 kts 332°
2026-04-25 18:04 34.99678 26.22849 33872 ft 499 kts 333°
2026-04-25 18:05 35.05921 26.19100 33874 ft 500 kts 333°
2026-04-25 18:05 35.11765 26.14622 33875 ft 499 kts 321°
2026-04-25 18:06 35.17161 26.09289 33881 ft 499 kts 319°
2026-04-25 18:06 35.22509 26.03887 33881 ft 499 kts 320°
2026-04-25 18:07 35.27910 25.98550 33889 ft 500 kts 319°
2026-04-25 18:07 35.33366 25.93210 33892 ft 502 kts 320°
2026-04-25 18:08 35.38790 25.87901 33894 ft 496 kts 320°
2026-04-25 18:08 35.44172 25.82620 33895 ft 497 kts 320°
2026-04-25 18:09 35.49579 25.77299 33895 ft 498 kts 320°
2026-04-25 18:09 35.54978 25.71979 33902 ft 498 kts 320°
2026-04-25 18:10 35.60393 25.66632 33903 ft 501 kts 320°
2026-04-25 18:10 35.65799 25.61285 33908 ft 494 kts 321°
2026-04-25 18:11 35.71096 25.56032 33908 ft 487 kts 321°
2026-04-25 18:11 35.76340 25.50829 33911 ft 488 kts 321°
2026-04-25 18:12 35.81632 25.45589 33911 ft 488 kts 321°
2026-04-25 18:12 35.86929 25.40339 33910 ft 490 kts 323°
2026-04-25 18:13 35.92262 25.35048 33917 ft 492 kts 323°
2026-04-25 18:13 35.97586 25.29725 33924 ft 492 kts 323°
2026-04-25 18:14 36.05545 25.21749 33926 ft 490 kts 323°
2026-04-25 18:14 36.10837 25.16438 33927 ft 491 kts 323°
2026-04-25 18:15 36.16137 25.11113 33928 ft 489 kts 323°
2026-04-25 18:15 36.21398 25.05814 33946 ft 487 kts 323°
2026-04-25 18:16 36.26651 25.00515 33930 ft 487 kts 324°
2026-04-25 18:17 36.34463 24.92616 33954 ft 481 kts 324°
2026-04-25 18:17 36.39650 24.87362 33951 ft 482 kts 323°
2026-04-25 18:18 36.44835 24.82100 33947 ft 481 kts 323°
2026-04-25 18:18 36.49990 24.76857 33952 ft 478 kts 323°
2026-04-25 18:19 36.55099 24.71654 33960 ft 478 kts 323°
2026-04-25 18:19 36.60240 24.66385 33960 ft 478 kts 323°
2026-04-25 18:20 36.65374 24.61113 33967 ft 479 kts 323°
2026-04-25 18:20 36.70511 24.55845 33964 ft 478 kts 323°
2026-04-25 18:21 36.75647 24.50577 33970 ft 478 kts 323°
2026-04-25 18:21 36.80586 24.45000 33976 ft 480 kts 316°
2026-04-25 18:22 36.85172 24.38936 33976 ft 480 kts 315°
2026-04-25 18:22 36.89708 24.32815 33978 ft 480 kts 315°
2026-04-25 18:23 36.94266 24.26728 33983 ft 479 kts 315°
2026-04-25 18:23 36.98836 24.20657 33989 ft 479 kts 315°
2026-04-25 18:24 37.03409 24.14578 33978 ft 479 kts 315°
2026-04-25 18:24 37.07986 24.08480 33992 ft 481 kts 315°
2026-04-25 18:25 37.12561 24.02371 33992 ft 481 kts 315°
2026-04-25 18:25 37.17128 23.96260 33996 ft 480 kts 315°
2026-04-25 18:26 37.21694 23.90140 33996 ft 480 kts 315°
2026-04-25 18:26 37.26258 23.84010 33999 ft 481 kts 315°
2026-04-25 18:27 37.30819 23.77873 34001 ft 481 kts 315°
2026-04-25 18:27 37.35376 23.71725 33998 ft 480 kts 315°
2026-04-25 18:28 37.39900 23.65573 34004 ft 479 kts 314°
2026-04-25 18:28 37.44426 23.59426 34009 ft 479 kts 315°
2026-04-25 18:29 37.51193 23.50242 34012 ft 479 kts 315°
2026-04-25 18:30 37.60247 23.37920 34009 ft 480 kts 315°
2026-04-25 18:30 37.64787 23.31724 34001 ft 480 kts 316°
2026-04-25 18:31 37.69340 23.25498 34017 ft 486 kts 316°
2026-04-25 18:31 37.73928 23.19211 34020 ft 486 kts 316°
2026-04-25 18:32 37.78506 23.12923 34023 ft 486 kts 316°
2026-04-25 18:32 37.83080 23.06629 34023 ft 486 kts 316°
2026-04-25 18:33 37.87654 23.00324 34024 ft 486 kts 316°
2026-04-25 18:33 37.92389 22.94250 34027 ft 484 kts 321°
2026-04-25 18:34 37.96495 22.89454 34011 ft 483 kts 321°
2026-04-25 18:34 38.01472 22.83723 34029 ft 484 kts 321°
2026-04-25 18:35 38.06433 22.77961 34021 ft 483 kts 321°
2026-04-25 18:35 38.11377 22.72182 34034 ft 483 kts 321°
2026-04-25 18:36 38.16322 22.66412 34026 ft 483 kts 321°
2026-04-25 18:36 38.21274 22.60650 34024 ft 483 kts 321°
2026-04-25 18:37 38.26229 22.54880 34033 ft 482 kts 321°
2026-04-25 18:37 38.31174 22.49109 34032 ft 482 kts 321°
2026-04-25 18:38 38.36117 22.43329 34041 ft 482 kts 321°
2026-04-25 18:38 38.41053 22.37546 34039 ft 482 kts 321°
2026-04-25 18:39 38.45991 22.31749 34045 ft 482 kts 321°
2026-04-25 18:39 38.50926 22.25944 34048 ft 482 kts 321°
2026-04-25 18:40 38.55854 22.20136 34045 ft 482 kts 321°
2026-04-25 18:40 38.60767 22.14294 34047 ft 482 kts 321°
2026-04-25 18:41 38.65666 22.08446 34050 ft 482 kts 321°
2026-04-25 18:41 38.70569 22.02599 34054 ft 482 kts 321°
2026-04-25 18:42 38.74644 21.97735 34049 ft 482 kts 321°
2026-04-25 18:42 38.80347 21.90917 34040 ft 483 kts 321°
2026-04-25 18:43 38.85244 21.85048 34055 ft 482 kts 321°
2026-04-25 18:43 38.90141 21.79168 34049 ft 482 kts 321°
2026-04-25 18:44 38.95038 21.73276 34052 ft 483 kts 321°
2026-04-25 18:44 38.99934 21.67375 34052 ft 483 kts 321°
2026-04-25 18:45 39.04827 21.61463 34055 ft 482 kts 321°
2026-04-25 18:45 39.09714 21.55548 34042 ft 482 kts 321°
2026-04-25 18:46 39.14599 21.49628 34053 ft 482 kts 321°
2026-04-25 18:46 39.19474 21.43685 34053 ft 483 kts 321°
2026-04-25 18:47 39.24343 21.37716 34045 ft 483 kts 321°
2026-04-25 18:47 39.29219 21.31751 34049 ft 483 kts 321°
2026-04-25 18:48 39.34096 21.25788 34042 ft 483 kts 321°
2026-04-25 18:48 39.38970 21.19817 34038 ft 482 kts 321°
2026-04-25 18:49 39.43827 21.13856 34030 ft 482 kts 321°
2026-04-25 18:49 39.48685 21.07883 34023 ft 482 kts 321°
2026-04-25 18:50 39.53548 21.01888 34042 ft 482 kts 321°
2026-04-25 18:50 39.58369 20.95934 34015 ft 483 kts 321°
2026-04-25 18:51 39.62435 20.90902 34011 ft 482 kts 321°
2026-04-25 18:51 39.68119 20.84029 34021 ft 478 kts 324°
2026-04-25 18:52 39.73378 20.78800 34017 ft 475 kts 328°
2026-04-25 18:52 39.78759 20.73798 34021 ft 475 kts 328°
2026-04-25 18:53 39.84118 20.68776 34016 ft 475 kts 328°
2026-04-25 18:53 39.89456 20.63711 34019 ft 475 kts 328°
2026-04-25 18:54 39.97474 20.56060 34007 ft 477 kts 327°
2026-04-25 18:55 40.02823 20.50942 34003 ft 476 kts 327°
2026-04-25 18:55 40.08170 20.45809 33995 ft 477 kts 327°
2026-04-25 18:56 40.13509 20.40658 34002 ft 477 kts 327°
2026-04-25 18:56 40.18856 20.35498 34002 ft 477 kts 327°
2026-04-25 18:57 40.24189 20.30348 34003 ft 476 kts 327°
2026-04-25 18:57 40.29516 20.25195 34005 ft 476 kts 327°
2026-04-25 18:58 40.34844 20.20031 34010 ft 476 kts 327°
2026-04-25 18:58 40.42831 20.12270 34007 ft 476 kts 326°
2026-04-25 18:59 40.53444 20.01917 34017 ft 475 kts 326°
2026-04-25 19:00 40.61378 19.94121 34017 ft 474 kts 326°
2026-04-25 19:01 40.69270 19.86367 34018 ft 473 kts 326°
2026-04-25 19:01 40.74542 19.81179 34017 ft 472 kts 326°
2026-04-25 19:02 40.82443 19.73386 34025 ft 473 kts 325°
2026-04-25 19:03 40.88596 19.67299 34020 ft 473 kts 325°
2026-04-25 19:03 40.95599 19.60354 34026 ft 472 kts 325°
2026-04-25 19:04 41.03466 19.52530 34031 ft 472 kts 324°
2026-04-25 19:05 41.13950 19.42065 34033 ft 472 kts 324°
2026-04-25 19:06 41.19195 19.36813 34037 ft 472 kts 324°
2026-04-25 19:06 41.27043 19.28890 34034 ft 472 kts 324°
2026-04-25 19:07 41.34894 19.20969 34037 ft 472 kts 324°
2026-04-25 19:08 41.42744 19.13040 34036 ft 471 kts 324°
2026-04-25 19:09 41.51402 19.04222 34039 ft 472 kts 323°
2026-04-25 19:10 41.60936 18.94459 34042 ft 472 kts 323°
2026-04-25 19:10 41.66143 18.89118 34043 ft 471 kts 323°
2026-04-25 19:11 41.71338 18.83778 34039 ft 470 kts 323°
2026-04-25 19:11 41.76525 18.78435 34040 ft 470 kts 323°
2026-04-25 19:12 41.81718 18.73074 34049 ft 472 kts 323°
2026-04-25 19:12 41.86918 18.67695 34038 ft 472 kts 323°
2026-04-25 19:13 41.92110 18.62312 34036 ft 471 kts 322°
2026-04-25 19:13 41.97283 18.56938 34038 ft 470 kts 322°
2026-04-25 19:14 42.02435 18.51528 34036 ft 470 kts 322°
2026-04-25 19:14 42.07521 18.46005 34038 ft 470 kts 321°
2026-04-25 19:15 42.12601 18.40458 34030 ft 471 kts 321°
2026-04-25 19:15 42.17694 18.34905 34030 ft 470 kts 321°
2026-04-25 19:16 42.22767 18.29370 34029 ft 469 kts 321°
2026-04-25 19:16 42.27808 18.23860 34021 ft 469 kts 321°
2026-04-25 19:17 42.32877 18.18308 34030 ft 469 kts 320°
2026-04-25 19:17 42.37950 18.12739 34029 ft 469 kts 320°
2026-04-25 19:18 42.43008 18.07175 34019 ft 468 kts 320°
2026-04-25 19:18 42.48058 18.01607 34023 ft 468 kts 320°
2026-04-25 19:19 42.53106 17.96029 34024 ft 468 kts 320°
2026-04-25 19:19 42.58150 17.90444 34024 ft 468 kts 320°
2026-04-25 19:20 42.63191 17.84851 34032 ft 468 kts 320°
2026-04-25 19:20 42.68210 17.79247 34034 ft 466 kts 319°
2026-04-25 19:21 42.73213 17.73636 34034 ft 466 kts 319°
2026-04-25 19:21 42.80729 17.65224 34031 ft 466 kts 319°
2026-04-25 19:22 42.84893 17.60559 34034 ft 466 kts 319°
2026-04-25 19:23 42.92432 17.52200 34034 ft 465 kts 320°
2026-04-25 19:23 43.00117 17.44095 34037 ft 465 kts 321°
2026-04-25 19:24 43.05247 17.38698 34039 ft 465 kts 320°
2026-04-25 19:25 43.15497 17.27849 34043 ft 465 kts 320°
2026-04-25 19:25 43.20606 17.22420 34046 ft 465 kts 320°
2026-04-25 19:26 43.25716 17.16977 34053 ft 465 kts 320°
2026-04-25 19:26 43.30824 17.11525 34054 ft 465 kts 320°
2026-04-25 19:27 43.35065 17.06990 34060 ft 464 kts 320°
2026-04-25 19:27 43.41012 17.00618 34057 ft 464 kts 320°
2026-04-25 19:28 43.46096 16.95155 34056 ft 464 kts 320°
2026-04-25 19:28 43.51182 16.89679 34051 ft 464 kts 320°
2026-04-25 19:29 43.56260 16.84193 34053 ft 464 kts 319°
2026-04-25 19:29 43.61325 16.78676 34056 ft 464 kts 319°
2026-04-25 19:30 43.66391 16.73164 34050 ft 464 kts 319°
2026-04-25 19:30 43.71462 16.67652 34048 ft 464 kts 319°
2026-04-25 19:31 43.76540 16.62124 34042 ft 465 kts 319°
2026-04-25 19:31 43.81578 16.56629 34048 ft 463 kts 319°
2026-04-25 19:32 43.86624 16.51112 34040 ft 462 kts 319°
2026-04-25 19:32 43.90852 16.46479 34044 ft 462 kts 319°
2026-04-25 19:33 43.96710 16.40045 34041 ft 463 kts 319°
2026-04-25 19:33 44.01758 16.34488 34056 ft 463 kts 319°
2026-04-25 19:34 44.06794 16.28934 34048 ft 460 kts 319°
2026-04-25 19:34 44.11809 16.23388 34046 ft 461 kts 319°
2026-04-25 19:35 44.16826 16.17828 34048 ft 461 kts 319°
2026-04-25 19:35 44.21838 16.12253 34051 ft 461 kts 318°
2026-04-25 19:36 44.26836 16.06646 34048 ft 460 kts 318°
2026-04-25 19:36 44.31821 16.01065 34042 ft 459 kts 318°
2026-04-25 19:37 44.36809 15.95483 34043 ft 460 kts 318°
2026-04-25 19:37 44.41800 15.89890 34040 ft 459 kts 318°
2026-04-25 19:38 44.46789 15.84287 34041 ft 460 kts 318°
2026-04-25 19:38 44.51766 15.78684 34037 ft 458 kts 318°
2026-04-25 19:39 44.56733 15.73079 34037 ft 458 kts 318°
2026-04-25 19:39 44.61696 15.67466 34037 ft 458 kts 318°
2026-04-25 19:40 44.66628 15.61876 34036 ft 459 kts 318°
2026-04-25 19:40 44.71626 15.56198 34037 ft 459 kts 318°
2026-04-25 19:41 44.76541 15.50603 34031 ft 457 kts 318°
2026-04-25 19:41 44.79848 15.46830 34029 ft 457 kts 318°
2026-04-25 19:42 44.86420 15.39308 34031 ft 457 kts 317°
2026-04-25 19:42 44.91346 15.33616 34032 ft 458 kts 317°
2026-04-25 19:43 44.96274 15.27930 34034 ft 457 kts 317°
2026-04-25 19:43 45.01203 15.22249 34023 ft 457 kts 317°
2026-04-25 19:44 45.06130 15.16562 34027 ft 457 kts 317°
2026-04-25 19:44 45.11056 15.10864 34024 ft 457 kts 317°
2026-04-25 19:45 45.15977 15.05157 34025 ft 457 kts 317°
2026-04-25 19:45 45.20893 14.99443 34030 ft 457 kts 317°
2026-04-25 19:46 45.25806 14.93719 34034 ft 457 kts 317°
2026-04-25 19:46 45.30718 14.87984 34034 ft 457 kts 317°
2026-04-25 19:47 45.35587 14.82284 34039 ft 457 kts 317°
2026-04-25 19:47 45.40487 14.76537 34042 ft 456 kts 317°
2026-04-25 19:48 45.45386 14.70776 34038 ft 457 kts 316°
2026-04-25 19:48 45.50280 14.65003 34039 ft 457 kts 316°
2026-04-25 19:49 45.53544 14.61118 34035 ft 457 kts 316°
2026-04-25 19:49 45.60040 14.53385 34035 ft 457 kts 316°
2026-04-25 19:50 45.67378 14.44665 34040 ft 458 kts 316°
2026-04-25 19:51 45.72278 14.38828 34039 ft 459 kts 316°
2026-04-25 19:51 45.77181 14.32975 34029 ft 458 kts 316°
2026-04-25 19:52 45.82081 14.27112 34033 ft 459 kts 315°
2026-04-25 19:52 45.86995 14.21216 34030 ft 462 kts 315°
2026-04-25 19:53 45.91918 14.15296 34030 ft 461 kts 315°
2026-04-25 19:53 45.96826 14.09382 34026 ft 460 kts 315°
2026-04-25 19:54 46.01733 14.03452 34025 ft 461 kts 315°
2026-04-25 19:54 46.06639 13.97509 34028 ft 461 kts 315°
2026-04-25 19:55 46.11513 13.91591 34022 ft 462 kts 315°
2026-04-25 19:55 46.16414 13.85599 34016 ft 462 kts 315°
2026-04-25 19:56 46.21312 13.79580 34023 ft 463 kts 315°
2026-04-25 19:56 46.26226 13.73555 34019 ft 463 kts 315°
2026-04-25 19:57 46.31132 13.67538 34023 ft 461 kts 316°
2026-04-25 19:57 46.36013 13.61543 34026 ft 460 kts 316°
2026-04-25 19:58 46.40891 13.55531 34021 ft 461 kts 317°
2026-04-25 19:58 46.45781 13.49493 34018 ft 461 kts 317°
2026-04-25 19:59 46.50664 13.43449 34024 ft 461 kts 317°
2026-04-25 19:59 46.55228 13.36960 34031 ft 458 kts 313°
2026-04-25 20:00 46.59507 13.30252 34044 ft 454 kts 313°
2026-04-25 20:00 46.63866 13.23564 34035 ft 457 kts 314°
2026-04-25 20:01 46.70511 13.13558 34037 ft 459 kts 314°
2026-04-25 20:01 46.74944 13.06887 34034 ft 456 kts 315°
2026-04-25 20:02 46.79334 13.00262 34046 ft 453 kts 315°
2026-04-25 20:02 46.83706 12.93645 34060 ft 453 kts 315°
2026-04-25 20:03 46.88080 12.87009 34066 ft 453 kts 315°
2026-04-25 20:03 46.92458 12.80349 34058 ft 455 kts 315°
2026-04-25 20:04 46.96835 12.73673 34063 ft 453 kts 314°
2026-04-25 20:04 47.01180 12.67030 34067 ft 451 kts 314°
2026-04-25 20:05 47.05512 12.60390 34075 ft 451 kts 314°
2026-04-25 20:05 47.09812 12.53751 34073 ft 452 kts 314°
2026-04-25 20:06 47.14123 12.47050 34075 ft 452 kts 314°
2026-04-25 20:06 47.18448 12.40349 34079 ft 451 kts 314°
2026-04-25 20:07 47.22764 12.33664 34088 ft 451 kts 314°
2026-04-25 20:07 47.27078 12.26968 34088 ft 450 kts 314°
2026-04-25 20:08 47.31392 12.20255 34097 ft 451 kts 314°
2026-04-25 20:08 47.35698 12.13537 34088 ft 451 kts 314°
2026-04-25 20:09 47.39998 12.06812 34092 ft 451 kts 314°
2026-04-25 20:09 47.43575 12.01204 34090 ft 451 kts 314°
2026-04-25 20:10 47.47873 11.94448 34090 ft 451 kts 314°
2026-04-25 20:10 47.52163 11.87690 34086 ft 451 kts 314°
2026-04-25 20:11 47.56457 11.80907 34086 ft 451 kts 314°
2026-04-25 20:11 47.60743 11.74120 34080 ft 451 kts 313°
2026-04-25 20:12 47.65018 11.67324 34092 ft 450 kts 313°
2026-04-25 20:12 47.68574 11.61610 34090 ft 449 kts 313°
2026-04-25 20:13 47.73509 11.53685 34087 ft 450 kts 313°
2026-04-25 20:13 47.77761 11.46874 34094 ft 450 kts 313°
2026-04-25 20:14 47.82017 11.40047 34101 ft 449 kts 313°
2026-04-25 20:14 47.86261 11.33222 34117 ft 449 kts 313°
2026-04-25 20:15 47.90499 11.26388 34124 ft 449 kts 313°
2026-04-25 20:15 47.94728 11.19550 34122 ft 448 kts 313°
2026-04-25 20:16 47.98950 11.12707 34121 ft 448 kts 313°
2026-04-25 20:16 48.03166 11.05854 34108 ft 449 kts 313°
2026-04-25 20:17 48.07386 10.98979 34106 ft 449 kts 313°
2026-04-25 20:17 48.11601 10.92093 34102 ft 449 kts 313°
2026-04-25 20:18 48.15787 10.85236 34106 ft 448 kts 312°
2026-04-25 20:18 48.19980 10.78351 34104 ft 447 kts 312°
2026-04-25 20:19 48.24152 10.71426 34101 ft 447 kts 312°
2026-04-25 20:19 48.28319 10.64492 34111 ft 447 kts 312°
2026-04-25 20:20 48.32524 10.57515 34114 ft 447 kts 312°
2026-04-25 20:20 48.36671 10.50631 34131 ft 447 kts 312°
2026-04-25 20:21 48.40843 10.43689 34133 ft 447 kts 312°
2026-04-25 20:21 48.45013 10.36732 34131 ft 447 kts 312°
2026-04-25 20:22 48.48472 10.30948 34136 ft 447 kts 312°
2026-04-25 20:22 48.53332 10.22798 34140 ft 447 kts 312°
2026-04-25 20:23 48.55391 10.19338 33743 ft 437 kts 312°
2026-04-25 20:23 48.57417 10.15928 32835 ft 433 kts 312°
2026-04-25 20:23 48.59436 10.12526 32310 ft 439 kts 312°
2026-04-25 20:23 48.61486 10.09067 31791 ft 443 kts 312°
2026-04-25 20:24 48.63536 10.05604 31291 ft 445 kts 312°
2026-04-25 20:24 48.65602 10.02108 30791 ft 446 kts 312°
2026-04-25 20:24 48.67665 9.98613 30322 ft 446 kts 313°
2026-04-25 20:24 48.69735 9.95102 29764 ft 447 kts 313°
2026-04-25 20:25 48.71811 9.91588 29206 ft 449 kts 313°
2026-04-25 20:25 48.73926 9.88101 28646 ft 450 kts 314°
2026-04-25 20:25 48.76077 9.84637 28215 ft 451 kts 314°
2026-04-25 20:25 48.78242 9.81193 27947 ft 453 kts 314°
2026-04-25 20:26 48.80424 9.77735 27690 ft 454 kts 314°
2026-04-25 20:26 48.82610 9.74272 27422 ft 455 kts 314°
2026-04-25 20:26 48.84802 9.70793 27155 ft 456 kts 314°
2026-04-25 20:26 48.86986 9.67318 26912 ft 455 kts 314°
2026-04-25 20:27 48.89164 9.63847 26652 ft 452 kts 314°
2026-04-25 20:27 48.91323 9.60398 26410 ft 450 kts 314°
2026-04-25 20:27 48.93481 9.56948 26155 ft 449 kts 314°
2026-04-25 20:27 48.95625 9.53514 25912 ft 447 kts 314°
2026-04-25 20:28 48.97755 9.50097 25662 ft 444 kts 314°
2026-04-25 20:28 48.99907 9.46738 25413 ft 441 kts 319°
2026-04-25 20:28 49.02370 9.43992 25179 ft 438 kts 329°
2026-04-25 20:28 49.05059 9.41816 24936 ft 437 kts 333°
2026-04-25 20:29 49.07787 9.39800 24700 ft 435 kts 333°
2026-04-25 20:29 49.10487 9.37754 24468 ft 432 kts 332°
2026-04-25 20:29 49.13112 9.35657 24247 ft 430 kts 331°
2026-04-25 20:29 49.15758 9.33443 24161 ft 427 kts 330°
2026-04-25 20:30 49.18342 9.31217 24130 ft 425 kts 329°
2026-04-25 20:30 49.20900 9.28978 24126 ft 423 kts 329°
2026-04-25 20:30 49.23447 9.26731 24126 ft 422 kts 329°
2026-04-25 20:30 49.25987 9.24484 24134 ft 421 kts 329°
2026-04-25 20:31 49.28519 9.22242 24134 ft 420 kts 329°
2026-04-25 20:31 49.31042 9.20005 24134 ft 419 kts 329°
2026-04-25 20:31 49.33561 9.17770 24132 ft 418 kts 329°
2026-04-25 20:31 49.36073 9.15540 24136 ft 417 kts 329°
2026-04-25 20:32 49.38580 9.13312 24144 ft 416 kts 329°
2026-04-25 20:32 49.41047 9.11118 24144 ft 415 kts 329°
2026-04-25 20:32 49.43538 9.08901 24134 ft 413 kts 329°
2026-04-25 20:32 49.46057 9.06654 24143 ft 413 kts 329°
2026-04-25 20:33 49.48499 9.04475 24149 ft 411 kts 329°
2026-04-25 20:33 49.50969 9.02266 24144 ft 411 kts 329°
2026-04-25 20:33 49.53441 9.00055 24149 ft 410 kts 329°
2026-04-25 20:33 49.55072 8.98594 24150 ft 409 kts 329°
2026-04-25 20:34 49.58357 8.95648 24144 ft 407 kts 329°
2026-04-25 20:34 49.60802 8.93453 24147 ft 407 kts 329°
2026-04-25 20:34 49.63249 8.91253 24153 ft 407 kts 329°
2026-04-25 20:34 49.65694 8.89053 24151 ft 407 kts 329°
2026-04-25 20:35 49.68140 8.86848 24149 ft 407 kts 328°
2026-04-25 20:35 49.70204 8.84983 24146 ft 407 kts 328°
2026-04-25 20:35 49.72640 8.82763 24147 ft 407 kts 328°
2026-04-25 20:35 49.75081 8.80537 24146 ft 407 kts 328°
2026-04-25 20:36 49.77518 8.78315 24147 ft 407 kts 328°
2026-04-25 20:36 49.79961 8.76093 24145 ft 407 kts 328°
2026-04-25 20:36 49.82402 8.73874 24129 ft 407 kts 328°
2026-04-25 20:36 49.84310 8.72140 24151 ft 407 kts 328°
2026-04-25 20:37 49.85927 8.70670 24144 ft 407 kts 328°
2026-04-25 20:37 49.88350 8.68489 24140 ft 408 kts 329°
2026-04-25 20:37 49.90831 8.66344 24137 ft 408 kts 330°
2026-04-25 20:37 49.93321 8.64237 24155 ft 408 kts 330°
2026-04-25 20:38 49.95823 8.62132 24155 ft 408 kts 330°
2026-04-25 20:38 49.98318 8.60035 24156 ft 408 kts 330°
2026-04-25 20:38 50.00817 8.57929 24155 ft 408 kts 330°
2026-04-25 20:38 50.03311 8.55821 24154 ft 408 kts 330°
2026-04-25 20:39 50.05769 8.53739 24132 ft 406 kts 330°
2026-04-25 20:39 50.08266 8.51621 23081 ft 403 kts 330°
2026-04-25 20:39 50.10713 8.49542 22078 ft 398 kts 330°
2026-04-25 20:39 50.11497 8.48875 21775 ft 396 kts 330°
2026-04-25 20:40 50.15475 8.45487 20410 ft 384 kts 330°
2026-04-25 20:40 50.17821 8.43485 19791 ft 386 kts 330°
2026-04-25 20:40 50.20179 8.41471 19180 ft 385 kts 330°
2026-04-25 20:40 50.22510 8.39478 18603 ft 381 kts 330°
2026-04-25 20:41 50.24825 8.37496 17959 ft 378 kts 330°
2026-04-25 20:41 50.27125 8.35526 17285 ft 375 kts 330°
2026-04-25 20:41 50.29401 8.33574 16510 ft 371 kts 330°
2026-04-25 20:41 50.31658 8.31636 15730 ft 368 kts 330°
2026-04-25 20:42 50.33880 8.29727 15257 ft 362 kts 330°
2026-04-25 20:42 50.36096 8.27820 14910 ft 363 kts 330°
2026-04-25 20:42 50.38296 8.25924 14539 ft 360 kts 330°
2026-04-25 20:42 50.40486 8.24035 14257 ft 357 kts 330°
2026-04-25 20:43 50.42663 8.22155 14184 ft 357 kts 330°
2026-04-25 20:43 50.44836 8.20278 14168 ft 357 kts 330°
2026-04-25 20:43 50.47009 8.18397 14160 ft 357 kts 330°
2026-04-25 20:43 50.49185 8.16512 14160 ft 357 kts 330°
2026-04-25 20:44 50.51353 8.14632 14111 ft 354 kts 330°
2026-04-25 20:44 50.53500 8.12769 13134 ft 353 kts 330°
2026-04-25 20:44 50.55638 8.10911 12394 ft 346 kts 330°
2026-04-25 20:44 50.57743 8.09080 12026 ft 350 kts 330°
2026-04-25 20:45 50.59863 8.07224 11654 ft 347 kts 330°
2026-04-25 20:45 50.61968 8.05370 11304 ft 346 kts 330°
2026-04-25 20:45 50.64060 8.03528 11184 ft 345 kts 330°
2026-04-25 20:45 50.66110 8.01666 11168 ft 344 kts 328°
2026-04-25 20:46 50.68075 7.99515 11118 ft 341 kts 322°
2026-04-25 20:46 50.69828 7.97015 10244 ft 341 kts 313°
2026-04-25 20:46 50.71263 7.94110 9872 ft 326 kts 304°
2026-04-25 20:46 50.72350 7.91103 9712 ft 307 kts 297°
2026-04-25 20:47 50.73130 7.88075 9584 ft 289 kts 290°
2026-04-25 20:47 50.73635 7.85101 9437 ft 273 kts 284°
2026-04-25 20:47 50.73912 7.82166 9020 ft 269 kts 277°
2026-04-25 20:47 50.73975 7.79213 8531 ft 269 kts 271°
2026-04-25 20:48 50.73831 7.76270 8055 ft 269 kts 266°
2026-04-25 20:48 50.73578 7.73347 7577 ft 268 kts 265°
2026-04-25 20:48 50.73307 7.70463 7276 ft 260 kts 265°
2026-04-25 20:48 50.73044 7.67712 7141 ft 246 kts 265°
2026-04-25 20:49 50.72879 7.65968 7017 ft 240 kts 265°
2026-04-25 20:49 50.72581 7.62763 6561 ft 238 kts 266°
2026-04-25 20:49 50.72345 7.60186 6160 ft 237 kts 266°
2026-04-25 20:49 50.72108 7.57627 5799 ft 234 kts 266°
2026-04-25 20:50 50.71879 7.55164 5472 ft 223 kts 266°
2026-04-25 20:50 50.71657 7.52758 4917 ft 221 kts 266°
2026-04-25 20:50 50.71438 7.50377 4407 ft 216 kts 266°
2026-04-25 20:50 50.71223 7.48044 4019 ft 217 kts 265°
2026-04-25 20:51 50.71008 7.45689 3650 ft 216 kts 265°
2026-04-25 20:51 50.70795 7.43364 3295 ft 212 kts 266°
2026-04-25 20:51 50.70705 7.41075 3182 ft 209 kts 276°
2026-04-25 20:51 50.70957 7.38858 3150 ft 208 kts 291°
2026-04-25 20:52 50.71639 7.36891 2983 ft 200 kts 311°
2026-04-25 20:52 50.71944 7.36346 2979 ft 192 kts 314°
2026-04-25 20:52 50.73386 7.34041 2972 ft 173 kts 318°
2026-04-25 20:52 50.74270 7.32755 2974 ft 172 kts 319°
2026-04-25 20:53 50.75147 7.31484 2974 ft 171 kts 319°
2026-04-25 20:53 50.76019 7.30224 2843 ft 164 kts 319°
2026-04-25 20:53 50.76830 7.29054 2615 ft 156 kts 319°
2026-04-25 20:53 50.77628 7.27905 2424 ft 155 kts 319°
2026-04-25 20:54 50.78425 7.26771 2224 ft 154 kts 320°
2026-04-25 20:54 50.78952 7.26018 2099 ft 154 kts 320°
2026-04-25 20:54 50.80009 7.24477 1794 ft 154 kts 320°
2026-04-25 20:54 50.80541 7.23740 1619 ft 154 kts 321°
2026-04-25 20:55 50.81345 7.22601 1425 ft 157 kts 319°
2026-04-25 20:55 50.82150 7.21421 1225 ft 159 kts 317°
2026-04-25 20:55 50.83250 7.19850 951 ft 162 kts 319°
2026-04-25 20:55 50.84079 7.18643 714 ft 162 kts 317°
2026-04-25 20:56 50.84640 7.17830 592 ft 163 kts 318°
2026-04-25 20:56 50.85480 7.16627 370 ft 162 kts 318°
2026-04-25 20:56 50.86258 7.15502 299 ft 134 kts 318°
2026-04-25 20:56 50.86756 7.14783 275 ft 61 kts 317°
2026-04-25 20:57 50.86880 7.14415 267 ft 29 kts 275°
2026-04-25 20:57 50.86903 7.14207 263 ft 3 kts 280°
2026-04-25 20:58 50.86903 7.14206 263 ft 0 kts 279°
2026-04-25 20:58 50.86904 7.14192 262 ft 2 kts 275°
2026-04-25 20:58 50.86906 7.14161 262 ft 3 kts 278°
2026-04-25 20:58 50.86911 7.14111 262 ft 8 kts 279°
2026-04-25 20:59 50.86922 7.14010 260 ft 11 kts 279°
2026-04-25 20:59 50.86954 7.13878 254 ft 14 kts 302°
2026-04-25 20:59 50.87018 7.13786 250 ft 13 kts 317°
2026-04-25 20:59 50.87090 7.13683 248 ft 15 kts 317°
2026-04-25 21:00 50.87171 7.13565 244 ft 17 kts 317°
2026-04-25 21:00 50.87231 7.13479 242 ft 18 kts 317°
2026-04-25 21:00 50.87427 7.13195 240 ft 9 kts 317°
2026-04-25 21:01 50.87443 7.13165 240 ft 1 kts 296°
2026-04-25 21:01 50.87438 7.13119 240 ft 6 kts 247°
2026-04-25 21:01 50.87418 7.13078 240 ft 3 kts 228°
2026-04-25 21:01 50.87409 7.13063 240 ft 1 kts 228°
2026-04-25 21:02 50.87404 7.13054 240 ft 0 kts 228°